STARLINK-11411, 62018

Orbit data source: Space-Track

STARLINK-11411, 62018 is a payload satellite owned by SpaceX/Seattle (US) in LEO that was launched on Mon, 18 Nov 2024 UTC via an FALCON 9 launch vehicle from the Air Force Western Test Range (AFWTR). Payload-class satellites include a variety of spacecraft equipped with specific instruments for various scientific and technological missions. These include communications satellites like Starlink; space stations such as the ISS; scientific satellites like the Hubble; Earth observation satellites from companies like Planet Labs, Umbra, and HawkEye 360; GPS; miniature CubeSats for education and research; and military/defense satellites.

Loading next visibility...
Identifier
62018, 2024-213L
Orbit
LEO
Last TLE update
17 hours ago
Origin
Manufacturer
SpaceX/Seattle
Mission
Operational Commercial Communications
Bus & Motor
STARLINK V2M, Unknown motor
Mass
730 kg wet, ~700 kg dry
Launch date (UTC)
2024-11-18 (7 months ago)
Launch vehicle
FALCON 9
Launch site
Air Force Western Test Range (AFWTR)
Object type
Payload
Rocket body
Debris
Shape & HBR
Box + 2 Pan, 29 m
Radar Cross Section
36.964 m², Large (>1 m²)

Expand to show TLE details & history

TLE from 17 hours ago
0 STARLINK-11411
1 62018U 24213L   25181.29460018  .00179764  00000-0  14553-2 0  9990
2 62018  53.1571 205.4824 0001256  38.9741 321.1368 15.69733376 35273
Epoch: 2025-06-30T07:04Z
TLE epoch observation values (Epoch: 2025-06-30T07:04:13.455Z)
Latitude
0.00004°
Longitude
-179.1801°
Altitude
359.916 km
Speed
7.695 km/s
True Right ascension
13h 41m 55s
True Declination
0° 00' 00"
Sunlit
Object was in daylight at epoch
Visualization orbit readout
Latitude
-43.0953°
Longitude
133.22126°
Altitude
373.501 km
Speed
7.685 km/s
Apparent Right ascension
05h 02m 36s
Apparent Declination
-83° 55' 58"
Sunlit
Object is in daylight
Visualization observer readout
Local Sidereal Time
11:14:27
Azimuth
187.916° SSW
Elevation
-39.961°
Doppler factor
1
Orbital elements
Apogee altitude
360.767 km
Perigee altitude
359.075 km
Semi-major axis
6,738.058 km
Eccentricity
0.00013
Inclination
53.1571°
RAAN
205.4824°
Arg. of periapsis
38.9741°
True anomaly
Unknown
Mean anomaly
321.1368°
Eccentric anomaly
Unknown
Mean motion
3.92411 °/min
Orbital period
91.74 mins
BSTAR
0.0014553
Loading maneuver chart data...
Loading SW <> Apogee altitude chart data...
Loading historical data...
Loading historical data...
Loading historical data...
Loading historical data...
Loading historical data...
Loading historical data...
Loading historical data...

STARLINK-11411 Visibility forecast

Observer location: undefined°, undefined°

Span
Click to sort rows by Start time (UTC) header in descending order
Start Az.
Max El. time (UTC)
Max El. Az.
Max El.
End time (UTC)
End Az.
4 mins2025-07-01 04:40:47.252Z261.019° W2025-07-01 04:41:47.252Z308.153° NW37.725°2025-07-01 04:44:47.252Z41.175° NE
4 mins2025-07-01 11:04:47.252Z309.269° NW2025-07-01 11:06:47.252Z139.768° SSE43.995°2025-07-01 11:08:47.252Z131.885° SE
|